Find Starlink 1446

NORAD ID: 45663 Int'l Des: 2020-035 Owner: SPXS Country: US Constellation: starlink operational
LEOCIRCULAR

現在のビュー

3D地球を読み込み中...

About Starlink 1446

Starlink 1446 (NORAD 45663) is a starlink constellation satellite (v1.0) launched Jun 4, 2020 by SPXS of US. It operates in LEO, CIRCULAR orbit with a mass of 260.00 kg.

Starlink 1446について

説明を読み込み中...

次回通過

Passes for default location (London). Set your location on the main map for personalized predictions.

高度履歴

Loading altitude history...

軌道要素

1 45663U 20035G 26174.41124972 .00024503 00000-0 45914-3 0 9994
2 45663 53.0204 215.1748 0001723 312.4520 47.6341 15.48552117336026
Epoch: Jun 23, 2026 • Age: 37 hours

現在のステータス

高度 425.2 km
速度 7.66 km/s
衛星直下点 43.05°N, 10.45°W
打ち上げ日 Jun 4, 2020
運用期間 6 years
タイプ internet

技術仕様

分類 Payload
質量 260.00 kg
乾燥質量 248.00 kg
総質量 260.00 kg
長さ 0.20 m
直径 2.80 m
スパン 9.00 m
形状 Box + pan
製造者 SPXS
バスタイプ Starlink
フェーズステータス In Orbit
所有者/国 SPXS/US

Most Searched